[[{"header":{"parameterUnit":"m.s-1","parameterCategory":1,"la1":30.2991,"la2":30.254,"lo1":-89.0895,"lo2":-89.0444,"dy":0.0017,"dx":0.0017,"nx":28,"ny":28,"refTime":"2025-04-27T21:00:00:Z","depth":0,"parameterNumber":2,"parameterNumberName":"U-component_of_WINDS"},"data":[0,0,0,0,0,0,0,0,0,0,0,0,0,0,0,0,0,0,0,0,0,0,0,0,0,0,0,0,0,0,0,0,0,0,0,0,0,0,0,0,0,0,0,0,0,0,0,0,0,0,0,0,0,0,0,0,0,0,-1.5759,-1.5758,0,-1.5682,-1.5681,-1.568,-1.5613,-1.5613,-1.5612,-1.5611,-1.5529,-1.5527,-1.5526,0,0,0,0,0,0,0,0,0,0,0,0,0,-1.5846,-1.5845,-1.5759,-1.5758,-1.5757,-1.5682,-1.5681,-1.568,-1.5613,-1.5612,-1.5612,-1.5611,-1.5529,-1.5527,-1.5526,0,0,0,0,0,0,0,0,0,0,0,0,0,-1.5793,-1.5845,-1.5759,-1.5715,-1.571,-1.5682,-1.5681,-1.5679,-1.5614,-1.5612,-1.5611,-1.561,-1.553,-1.5528,-1.5525,-1.5533,0,0,-1.5518,-1.5517,0,0,0,0,0,0,0,0,-1.5796,-1.5789,-1.5722,-1.5718,-1.5712,-1.5656,-1.5681,-1.563,-1.5614,-1.565,-1.5611,-1.561,-1.5572,-1.5566,-1.5554,-1.553,-1.5526,-1.5518,-1.5517,-1.5516,-1.5515,0,0,0,0,0,0,0,-1.5799,-1.5792,-1.5728,-1.5721,-1.5715,-1.5698,-1.5689,-1.5671,-1.5618,-1.5647,-1.5642,-1.5634,-1.5569,-1.5556,-1.5551,-1.5525,-1.5518,-1.5516,-1.5515,-1.5514,-1.5504,-1.5505,0,0,0,0,0,0,-1.581,-1.5796,-1.573,-1.5726,-1.5752,-1.5697,-1.5688,-1.5675,-1.5618,-1.5608,-1.5635,-1.5631,-1.556,-1.5554,-1.5548,-1.5554,-1.5516,-1.5514,-1.5512,-1.5503,-1.5504,-1.5505,0,0,0,0,0,0,-1.5813,-1.5805,-1.5733,-1.5759,-1.5749,-1.5697,-1.5684,-1.5674,-1.5661,-1.5609,-1.5599,-1.5632,-1.5559,-1.5551,-1.5538,-1.555,-1.5513,-1.5511,-1.5502,-1.5503,-1.5505,-1.5566,0,0,0,0,0,0,-1.5815,-1.5806,-1.5809,-1.576,-1.5748,-1.5726,-1.5684,-1.5673,-1.5658,-1.5652,-1.5603,-1.5594,-1.5558,-1.5542,-1.5536,-1.5546,-1.5509,-1.55,-1.5502,-1.5504,-1.5563,-1.5569,-1.5575,0,0,0,0,0,-1.5819,-1.5829,-1.581,-1.5802,-1.5751,-1.5726,-1.5719,-1.5678,-1.5659,-1.5662,-1.5628,-1.5596,-1.555,-1.5541,-1.5534,-1.5544,-1.5499,-1.5502,-1.5504,-1.556,-1.5568,-1.5575,0,0,0,0,0,0,-1.5879,-1.5821,-1.58,-1.5794,-1.5766,-1.5715,-1.5717,-1.5688,-1.5664,-1.5659,-1.5609,-1.5598,-1.559,-1.5566,-1.5556,-1.5549,-1.552,-1.5522,-1.5565,-1.5573,-1.5579,-1.5585,-1.5507,0,0,0,0,0,-1.5893,-1.5879,-1.5828,-1.5828,-1.5815,-1.5769,-1.5757,-1.5728,-1.5696,-1.5683,-1.5648,-1.5618,-1.5596,-1.5583,-1.5561,-1.5559,-1.5547,-1.5563,-1.5569,-1.5575,-1.5576,-1.5573,-1.5579,-1.5513,-1.5513,-1.5513,0,0,-1.5919,-1.5885,-1.5879,-1.584,-1.5814,-1.58,-1.5759,-1.5746,-1.5734,-1.568,-1.5666,-1.564,-1.5602,-1.5595,-1.559,-1.5574,-1.5592,-1.5578,-1.5583,-1.558,-1.5576,-1.5583,-1.5588,-1.5515,-1.5515,-1.5515,0,0,-1.5959,-1.5933,-1.593,-1.5906,-1.5869,-1.5838,-1.5838,-1.5791,-1.5772,-1.5757,-1.5717,-1.5703,-1.5667,-1.5642,-1.5625,-1.5658,-1.5627,-1.5652,-1.5685,-1.5683,-1.5688,-1.5692,-1.5704,-1.5708,-1.5653,-1.5654,-1.5654,0,-1.5996,-1.5974,-1.5932,-1.5922,-1.5905,-1.5858,-1.5854,-1.5833,-1.579,-1.5779,-1.5762,-1.5718,-1.5689,-1.5675,-1.5684,-1.5671,-1.5669,-1.5656,-1.5691,-1.5695,-1.5698,-1.5708,-1.5713,-1.5657,-1.5656,-1.5656,-1.5656,0,-1.6021,-1.6007,-1.6009,-1.597,-1.5954,-1.5947,-1.5904,-1.5893,-1.5866,-1.5837,-1.5822,-1.5786,-1.5756,-1.5751,-1.5724,-1.5734,-1.5725,-1.5701,-1.567,-1.5708,-1.5717,-1.5721,-1.5661,-1.566,-1.5659,-1.5658,0,0,-1.6096,-1.6036,-1.6037,-1.6019,-1.5975,-1.5963,-1.5954,-1.5926,-1.5917,-1.5889,-1.588,-1.5852,-1.5829,-1.581,-1.5779,-1.5778,-1.5806,-1.5753,-1.5752,-1.5764,-1.5815,-1.5833,-1.5838,-1.5786,-1.5787,-1.5787,-1.5818,0,-1.6129,-1.6111,-1.6074,-1.6068,-1.6053,-1.6009,-1.6001,-1.5973,-1.5946,-1.593,-1.5899,-1.588,-1.5852,-1.584,-1.5837,-1.5804,-1.5816,-1.5801,-1.5776,-1.5776,-1.5786,-1.5843,-1.5862,-1.5892,-1.5821,-1.5821,-1.5822,0,-1.6165,-1.6141,-1.6134,-1.6092,-1.6084,-1.6078,-1.605,-1.6035,-1.6002,-1.5982,-1.5962,-1.5929,-1.5917,-1.5891,-1.5872,-1.5863,-1.5851,-1.5834,-1.5834,-1.5829,-1.58,-1.5839,-1.5901,-1.5905,-1.5827,-1.5826,-1.5826,0,-1.622,-1.6187,-1.6178,-1.6164,-1.6114,-1.6111,-1.609,-1.6056,-1.6042,-1.6017,-1.6007,-1.5981,-1.5966,-1.5946,-1.5907,-1.5891,-1.5893,-1.5863,-1.5876,-1.5877,-1.5877,-1.5877,-1.5937,-1.5871,-1.5871,-1.5871,-1.587,0,-1.626,-1.6257,-1.6202,-1.6197,-1.6192,-1.6149,-1.6146,-1.612,-1.6091,-1.608,-1.6039,-1.6029,-1.5979,-1.5962,-1.5932,-1.5921,-1.5915,-1.5898,-1.589,-1.5901,-1.5904,-1.5892,-1.5888,-1.5872,-1.5871,-1.5871,-1.5871,0,-1.6321,-1.6284,-1.6271,-1.6226,-1.6215,-1.6213,-1.6174,-1.6167,-1.6138,-1.6124,-1.6118,-1.6073,-1.6052,-1.6011,-1.5979,-1.5958,-1.5954,-1.594,-1.5966,-1.596,-1.5975,-1.5974,-1.6028,-1.6033,-1.5965,-1.5966,-1.5966,0,-1.6348,-1.6345,-1.63,-1.629,-1.6271,-1.6256,-1.6241,-1.6199,-1.6186,-1.6149,-1.6146,-1.6122,-1.6101,-1.6069,-1.6033,-1.6008,-1.5992,-1.6013,-1.5988,-1.6,-1.5992,-1.5992,-1.5992,-1.6019,-1.6019,-1.602,-1.6021,0,-1.6401,-1.6384,-1.6365,-1.634,-1.6325,-1.6303,-1.6279,-1.6273,-1.6225,-1.6212,-1.6191,-1.6174,-1.6142,-1.6118,-1.6088,-1.6066,-1.6035,-1.603,-1.6031,-1.6042,-1.6057,-1.6049,-1.598,-1.6028,-1.6027,-1.6027,-1.6026,-1.6026,-1.6446,-1.6441,-1.6409,-1.639,-1.6368,-1.6347,-1.6338,-1.6309,-1.6291,-1.6262,-1.6238,-1.6219,-1.6186,-1.6143,-1.6122,-1.6106,-1.6092,-1.6094,-1.6094,-1.6095,-1.61,-1.6061,-1.6101,-1.61,-1.61,-1.61,-1.61,0,-1.6497,-1.6474,-1.6457,-1.6425,-1.641,-1.6385,-1.6357,-1.6346,-1.633,-1.6303,-1.6283,-1.6259,-1.6237,-1.6199,-1.6173,-1.6168,-1.6153,-1.6162,-1.6162,-1.6157,-1.6115,-1.6116,-1.6174,-1.6174,-1.6174,-1.6174,-1.6174,-1.6174,-1.6521,-1.6512,-1.6491,-1.647,-1.6447,-1.6429,-1.6416,-1.6396,-1.6374,-1.6349,-1.6331,-1.6307,-1.6276,-1.6248,-1.6226,-1.6215,-1.6207,-1.6221,-1.6206,-1.6167,-1.616,-1.6153,-1.6154,-1.622,-1.622,-1.625,-1.625,-1.625]},{"header":{"parameterUnit":"m.s-1","parameterCategory":1,"la1":30.2991,"la2":30.254,"lo1":-89.0895,"lo2":-89.0444,"dy":0.0017,"dx":0.0017,"nx":28,"ny":28,"refTime":"2025-04-27T21:00:00:Z","depth":0,"parameterNumber":3,"parameterNumberName":"V-component_of_WINDS"},"data":[0,0,0,0,0,0,0,0,0,0,0,0,0,0,0,0,0,0,0,0,0,0,0,0,0,0,0,0,0,0,0,0,0,0,0,0,0,0,0,0,0,0,0,0,0,0,0,0,0,0,0,0,0,0,0,0,0,0,3.6722,3.6722,0,3.6725,3.6725,3.6725,3.6704,3.6704,3.6703,3.6703,3.6705,3.6705,3.6706,0,0,0,0,0,0,0,0,0,0,0,0,0,3.6698,3.6698,3.6722,3.6722,3.6722,3.6725,3.6725,3.6725,3.6704,3.6704,3.6703,3.6702,3.6705,3.6705,3.6706,0,0,0,0,0,0,0,0,0,0,0,0,0,3.6705,3.6698,3.6722,3.6712,3.6711,3.6725,3.6725,3.6725,3.6705,3.6704,3.6703,3.6702,3.6704,3.6705,3.6706,3.6729,0,0,3.6709,3.6709,0,0,0,0,0,0,0,0,3.6705,3.6706,3.6713,3.6713,3.6712,3.6713,3.6717,3.6726,3.6705,3.6707,3.6703,3.6702,3.6708,3.6709,3.6711,3.6729,3.6729,3.6709,3.6709,3.671,3.671,0,0,0,0,0,0,0,3.6704,3.6706,3.6723,3.6713,3.6712,3.6707,3.6707,3.6719,3.6712,3.6707,3.6705,3.6706,3.6708,3.671,3.6711,3.6729,3.6709,3.671,3.671,3.6711,3.6767,3.6768,0,0,0,0,0,0,3.6705,3.6706,3.6723,3.6723,3.6706,3.6708,3.6709,3.6714,3.6712,3.6711,3.6707,3.6705,3.6709,3.671,3.6711,3.6738,3.671,3.6711,3.6711,3.6766,3.6767,3.6768,0,0,0,0,0,0,3.6705,3.6707,3.6723,3.6714,3.6715,3.671,3.6716,3.6714,3.6717,3.6712,3.6711,3.6711,3.6709,3.671,3.6725,3.6738,3.6711,3.6712,3.6765,3.6766,3.6767,3.6792,0,0,0,0,0,0,3.6704,3.6707,3.6715,3.6714,3.6716,3.6736,3.6716,3.6715,3.6719,3.6716,3.6716,3.6715,3.6708,3.6724,3.6726,3.6739,3.6713,3.6763,3.6765,3.6767,3.679,3.6795,3.6798,0,0,0,0,0,3.6703,3.6722,3.6716,3.6718,3.6727,3.6737,3.6738,3.6731,3.672,3.6728,3.6726,3.6715,3.6736,3.6725,3.6728,3.6741,3.6763,3.6765,3.6767,3.6789,3.6794,3.6798,0,0,0,0,0,0,3.6724,3.6721,3.6715,3.6733,3.6736,3.6734,3.6744,3.6736,3.6741,3.6739,3.6729,3.6729,3.6746,3.6745,3.6733,3.6764,3.6748,3.675,3.6763,3.6768,3.6772,3.6772,3.6713,0,0,0,0,0,3.6731,3.674,3.6737,3.6754,3.6755,3.675,3.6754,3.6748,3.675,3.6751,3.6749,3.6751,3.6758,3.6763,3.6769,3.679,3.679,3.6801,3.6805,3.6808,3.681,3.6822,3.6827,3.6775,3.6775,3.6775,0,0,3.6745,3.6744,3.6751,3.6758,3.6759,3.6769,3.6751,3.6761,3.6768,3.6752,3.6766,3.6765,3.6767,3.6785,3.6793,3.6785,3.6825,3.6811,3.6813,3.6814,3.6825,3.683,3.6834,3.6776,3.6776,3.6776,0,0,3.6775,3.6776,3.679,3.6792,3.6794,3.6791,3.6794,3.6794,3.6793,3.6807,3.6795,3.6804,3.6816,3.6818,3.6821,3.6853,3.6844,3.6856,3.6876,3.6887,3.6891,3.6895,3.6907,3.6912,3.6858,3.6858,3.6858,0,3.6792,3.6806,3.6799,3.6811,3.6814,3.6801,3.6816,3.6818,3.6822,3.6825,3.6816,3.6832,3.6832,3.6851,3.6859,3.6862,3.6866,3.6856,3.6892,3.6895,3.6898,3.691,3.6914,3.686,3.686,3.6859,3.6859,0,3.6827,3.6838,3.6849,3.6854,3.6859,3.6873,3.6867,3.6873,3.6867,3.6864,3.688,3.688,3.6886,3.689,3.6884,3.6909,3.6904,3.6893,3.6877,3.6905,3.6915,3.692,3.6862,3.6861,3.6861,3.686,0,0,3.687,3.6872,3.6876,3.6879,3.6881,3.6889,3.6902,3.6909,3.6914,3.6918,3.6929,3.694,3.6931,3.6934,3.6928,3.6938,3.6965,3.6927,3.6927,3.6934,3.6993,3.7001,3.7006,3.6959,3.696,3.696,3.6993,0,3.69,3.6923,3.6917,3.6939,3.6949,3.6937,3.6948,3.6951,3.6949,3.6957,3.6955,3.6964,3.695,3.6952,3.6962,3.696,3.6977,3.6957,3.6969,3.6969,3.6969,3.7012,3.702,3.705,3.6997,3.6998,3.6998,0,3.6938,3.6944,3.6968,3.697,3.6973,3.6984,3.699,3.6998,3.7001,3.6999,3.7003,3.6995,3.7008,3.6992,3.701,3.6997,3.7002,3.7002,3.7003,3.7003,3.6985,3.7014,3.706,3.7065,3.7005,3.7004,3.7004,0,3.6967,3.6981,3.6998,3.7,3.7002,3.701,3.7011,3.7014,3.7019,3.7024,3.7028,3.7034,3.7038,3.7044,3.7038,3.7027,3.7057,3.7041,3.7056,3.7056,3.7063,3.7063,3.7111,3.7066,3.7065,3.7065,3.7065,0,3.7002,3.7017,3.7011,3.7021,3.7038,3.7031,3.7048,3.7048,3.705,3.706,3.705,3.7059,3.7051,3.706,3.7056,3.7071,3.7073,3.7072,3.7071,3.7073,3.7073,3.7076,3.7074,3.7067,3.7066,3.7066,3.7066,0,3.7037,3.7034,3.7051,3.7052,3.7053,3.7065,3.7066,3.7076,3.7074,3.7086,3.7089,3.7085,3.7095,3.709,3.71,3.7098,3.7118,3.7114,3.7118,3.7116,3.7132,3.7131,3.7184,3.7191,3.7141,3.7142,3.7142,0,3.7059,3.7071,3.7074,3.708,3.7082,3.7092,3.7098,3.7092,3.7098,3.7103,3.7112,3.7121,3.7128,3.7144,3.7142,3.715,3.7146,3.7164,3.7147,3.715,3.7147,3.7147,3.7148,3.7168,3.7168,3.7169,3.7169,0,3.7099,3.7098,3.7106,3.7115,3.7122,3.7128,3.7133,3.7138,3.7133,3.714,3.7151,3.7156,3.7167,3.7176,3.7183,3.7184,3.7176,3.7175,3.7179,3.7181,3.7183,3.7183,3.7127,3.7173,3.7173,3.7173,3.7172,3.7172,3.7129,3.7139,3.7143,3.7154,3.7157,3.7163,3.7172,3.7171,3.718,3.7189,3.7185,3.7197,3.7201,3.7209,3.7212,3.7221,3.7214,3.722,3.7221,3.7223,3.7225,3.7182,3.7222,3.7222,3.7222,3.7222,3.7222,0,3.7169,3.7172,3.7181,3.7189,3.7197,3.719,3.7195,3.7202,3.7214,3.7218,3.7225,3.7238,3.7247,3.7247,3.7255,3.7263,3.7259,3.7265,3.7265,3.7265,3.7231,3.7227,3.7268,3.7268,3.7268,3.7268,3.7268,3.7268,3.7191,3.7208,3.7207,3.7226,3.7228,3.7241,3.7245,3.725,3.7253,3.7268,3.7276,3.7276,3.7278,3.7287,3.7295,3.7295,3.7299,3.7306,3.7305,3.7272,3.7268,3.7263,3.7259,3.7307,3.7307,3.7338,3.7339,3.7339]}]]